| time (UTC) | temp F | wind direction | speed MPH | gust MPH | rain 1hr in | rain 24hr in | rain mn in | humidity % | barometer mb |
| 20260904172146 | 84 | 33 | 6.0 | 8.0 | 0.00 | 0.00 | 0.36 | 81 | 1014.6 |
| 20260904171646 | 84 | 7 | 2.0 | 9.0 | 0.00 | 0.00 | 0.36 | 83 | 1014.6 |
| 20260904171146 | 84 | 24 | 7.0 | 11.0 | 0.00 | 0.00 | 0.36 | 83 | 1014.6 |
| 20260904170646 | 84 | 345 | 1.0 | 10.0 | 0.00 | 0.00 | 0.36 | 84 | 1014.9 |
| 20260904170147 | 84 | 11 | 4.0 | 8.0 | 0.00 | 0.00 | 0.36 | 83 | 1014.2 |
| 20260904165646 | 84 | 51 | 5.0 | 9.0 | 0.00 | 0.00 | 0.36 | 81 | 1014.6 |
| 20260904165147 | 84 | 8 | 3.0 | 5.0 | 0.00 | 0.00 | 0.36 | 82 | 1014.6 |
| 20260904164646 | 84 | 27 | 6.0 | 10.0 | 0.00 | 0.00 | 0.36 | 82 | 1014.6 |
| 20260904164146 | 84 | 38 | 6.0 | 8.0 | 0.00 | 0.00 | 0.36 | 81 | 1014.9 |
| 20260904163646 | 84 | 1 | 2.0 | 8.0 | 0.00 | 0.00 | 0.36 | 82 | 1014.9 |
| 20260904163146 | 84 | 29 | 5.0 | 7.0 | 0.00 | 0.00 | 0.36 | 82 | 1015.2 |
| 20260904162646 | 84 | 23 | 5.0 | 5.0 | 0.00 | 0.00 | 0.36 | 83 | 1015.2 |
| 20260904162146 | 84 | 36 | 4.0 | 9.0 | 0.00 | 0.00 | 0.36 | 83 | 1014.9 |
| 20260904161646 | 84 | 35 | 4.0 | 7.0 | 0.00 | 0.00 | 0.36 | 83 | 1015.2 |
| 20260904161147 | 84 | 33 | 4.0 | 6.0 | 0.00 | 0.00 | 0.36 | 83 | 1015.2 |
| 20260904160647 | 84 | 355 | 3.0 | 5.0 | 0.00 | 0.00 | 0.36 | 84 | 1015.2 |
| 20260904160146 | 83 | 348 | 2.0 | 6.0 | 0.00 | 0.00 | 0.36 | 84 | 1015.2 |
| 20260904155649 | 83 | 358 | 2.0 | 7.0 | 0.00 | 0.00 | 0.36 | 85 | 1015.2 |
| 20260904155146 | 83 | 324 | 5.0 | 8.0 | 0.00 | 0.00 | 0.36 | 84 | 1015.2 |
| 20260904154646 | 84 | 53 | 5.0 | 8.0 | 0.00 | 0.00 | 0.36 | 85 | 1015.2 |
| 20260904154149 | 83 | 16 | 5.0 | 5.0 | 0.00 | 0.00 | 0.36 | 86 | 1014.9 |
| 20260904153647 | 83 | 354 | 2.0 | 7.0 | 0.00 | 0.00 | 0.36 | 86 | 1014.9 |
| 20260904153149 | 83 | 20 | 3.0 | 5.0 | 0.00 | 0.00 | 0.36 | 88 | 1014.9 |
| 20260904152646 | 82 | 350 | 3.0 | 6.0 | 0.00 | 0.00 | 0.36 | 88 | 1014.9 |
| 20260904152146 | 82 | 350 | 3.0 | 6.0 | 0.00 | 0.00 | 0.36 | 88 | 1014.9 |
| 20260904151646 | 82 | 14 | 3.0 | 6.0 | 0.00 | 0.00 | 0.36 | 89 | 1015.2 |
| 20260904151147 | 82 | 360 | 3.0 | 6.0 | 0.00 | 0.00 | 0.36 | 89 | 1015.2 |
| 20260904150646 | 82 | 12 | 3.0 | 6.0 | 0.00 | 0.00 | 0.36 | 89 | 1015.2 |
| 20260904150146 | 82 | 350 | 2.0 | 7.0 | 0.00 | 0.00 | 0.36 | 88 | 1015.2 |
| 20260904145646 | 82 | 340 | 3.0 | 4.0 | 0.00 | 0.00 | 0.36 | 88 | 1015.2 |
| 20260904145146 | 82 | 46 | 4.0 | 5.0 | 0.00 | 0.00 | 0.36 | 87 | 1014.9 |
| 20260904144647 | 82 | 360 | 2.0 | 5.0 | 0.00 | 0.00 | 0.36 | 87 | 1014.9 |
| 20260904144148 | 81 | 4 | 3.0 | 5.0 | 0.00 | 0.00 | 0.36 | 88 | 1015.2 |
| 20260904143647 | 81 | 45 | 4.0 | 6.0 | 0.00 | 0.00 | 0.36 | 88 | 1014.9 |
| 20260904143146 | 81 | 48 | 4.0 | 5.0 | 0.00 | 0.00 | 0.36 | 89 | 1014.9 |
| 20260904142646 | 80 | 303 | 2.0 | 6.0 | 0.00 | 0.00 | 0.36 | 90 | 1014.9 |
| 20260904142146 | 80 | 61 | 4.0 | 5.0 | 0.00 | 0.00 | 0.36 | 90 | 1014.9 |
| 20260904141648 | 79 | 69 | 2.0 | 3.0 | 0.00 | 0.00 | 0.36 | 90 | 1014.9 |
| 20260904141146 | 80 | 70 | 3.0 | 4.0 | 0.00 | 0.00 | 0.36 | 90 | 1014.9 |
| 20260904140647 | 79 | 47 | 3.0 | 5.0 | 0.00 | 0.00 | 0.36 | 90 | 1014.6 |
| 20260904140147 | 79 | 96 | 1.0 | 4.0 | 0.00 | 0.00 | 0.36 | 90 | 1014.9 |
| 20260904135647 | 79 | 26 | 0.0 | 2.0 | 0.00 | 0.00 | 0.36 | 90 | 1014.9 |
| 20260904135146 | 78 | 67 | 2.0 | 4.0 | 0.00 | 0.00 | 0.36 | 90 | 1014.9 |
| 20260904134647 | 78 | 7 | 3.0 | 6.0 | 0.00 | 0.00 | 0.36 | 90 | 1014.6 |
| 20260904134147 | 78 | 100 | 3.0 | 5.0 | 0.00 | 0.00 | 0.36 | 91 | 1014.6 |
| 20260904133646 | 77 | 342 | 3.0 | 6.0 | 0.00 | 0.00 | 0.36 | 92 | 1014.2 |
| 20260904133147 | 77 | 340 | 7.0 | 10.0 | 0.00 | 0.00 | 0.36 | 92 | 1014.2 |
| 20260904132647 | 76 | 320 | 4.0 | 8.0 | 0.00 | 0.00 | 0.36 | 92 | 1014.2 |
| 20260904132146 | 76 | 298 | 5.0 | 6.0 | 0.00 | 0.00 | 0.36 | 92 | 1014.2 |
| 20260904131646 | 76 | 316 | 2.0 | 5.0 | 0.00 | 0.00 | 0.36 | 93 | 1014.2 |
| 20260904131147 | 76 | 305 | 4.0 | 6.0 | 0.00 | 0.00 | 0.36 | 92 | 1014.2 |
| 20260904130646 | 75 | 8 | 3.0 | 7.0 | 0.00 | 0.00 | 0.36 | 94 | 1014.2 |
| 20260904130146 | 75 | 317 | 1.0 | 4.0 | 0.00 | 0.00 | 0.36 | 94 | 1014.2 |
| 20260904125647 | 75 | 275 | 2.0 | 4.0 | 0.00 | 0.00 | 0.36 | 94 | 1014.2 |
| 20260904125147 | 75 | 314 | 3.0 | 5.0 | 0.00 | 0.00 | 0.36 | 94 | 1014.2 |
| 20260904124648 | 75 | 293 | 2.0 | 5.0 | 0.00 | 0.00 | 0.36 | 95 | 1014.2 |
| 20260904124147 | 75 | 294 | 2.0 | 3.0 | 0.02 | 0.00 | 0.36 | 95 | 1014.2 |
| 20260904123647 | 75 | 229 | 2.0 | 4.0 | 0.02 | 0.00 | 0.36 | 94 | 1014.2 |
| 20260904123146 | 75 | 282 | 3.0 | 5.0 | 0.00 | 0.00 | 0.36 | 94 | 1014.2 |
| 20260904122647 | 74 | 335 | 6.0 | 9.0 | 0.02 | 0.00 | 0.36 | 94 | 1014.2 |
| 20260904122147 | 74 | 339 | 7.0 | 9.0 | 0.05 | 0.00 | 0.36 | 95 | 1014.2 |
| 20260904121646 | 74 | 347 | 6.0 | 12.0 | 0.02 | 0.00 | 0.35 | 95 | 1014.2 |
| 20260904121148 | 74 | 349 | 3.0 | 7.0 | 0.02 | 0.00 | 0.35 | 94 | 1014.2 |
| 20260904120646 | 74 | 294 | 3.0 | 7.0 | 0.09 | 0.00 | 0.35 | 93 | 1013.9 |
| 20260904120147 | 74 | 357 | 5.0 | 8.0 | 0.14 | 0.00 | 0.35 | 93 | 1013.9 |
| 20260904115647 | 74 | 356 | 4.0 | 9.0 | 0.38 | 0.00 | 0.34 | 95 | 1013.9 |
| 20260904115148 | 74 | 25 | 7.0 | 9.0 | 0.83 | 0.00 | 0.32 | 94 | 1014.2 |
| 20260904114647 | 75 | 357 | 5.0 | 10.0 | 0.80 | 0.00 | 0.26 | 93 | 1013.9 |
| 20260904114146 | 75 | 17 | 5.0 | 10.0 | 0.71 | 0.00 | 0.18 | 95 | 1013.9 |
| 20260904113650 | 75 | 34 | 9.0 | 11.0 | 0.64 | 0.00 | 0.11 | 95 | 1013.5 |
| 20260904113146 | 75 | 59 | 2.0 | 9.0 | 0.26 | 0.00 | 0.04 | 90 | 1013.5 |
| 20260904112646 | 76 | 352 | 6.0 | 10.0 | 0.00 | 0.00 | 0.00 | 87 | 1013.5 |
| 20260904112146 | 76 | 7 | 5.0 | 9.0 | 0.00 | 0.00 | 0.00 | 87 | 1013.5 |
| 20260904111646 | 76 | 334 | 7.0 | 9.0 | 0.00 | 0.00 | 0.00 | 90 | 1013.5 |
| 20260904111146 | 77 | 315 | 5.0 | 10.0 | 0.00 | 0.00 | 0.00 | 90 | 1013.9 |
| 20260904110646 | 78 | 283 | 5.0 | 7.0 | 0.00 | 0.00 | 0.00 | 86 | 1013.9 |
| 20260904110148 | 79 | 328 | 5.0 | 8.0 | 0.00 | 0.00 | 0.00 | 84 | 1013.5 |
| 20260904105647 | 79 | 338 | 4.0 | 10.0 | 0.00 | 0.00 | 0.00 | 82 | 1013.5 |
| 20260904105146 | 80 | 325 | 8.0 | 13.0 | 0.00 | 0.00 | 0.00 | 86 | 1013.5 |
| 20260904104647 | 80 | 352 | 4.0 | 6.0 | 0.00 | 0.00 | 0.00 | 94 | 1013.5 |
| 20260904104146 | 80 | 315 | 0.0 | 2.0 | 0.00 | 0.00 | 0.00 | 95 | 1013.5 |
| 20260904103647 | 80 | 248 | 2.0 | 4.0 | 0.00 | 0.00 | 0.00 | 94 | 1013.2 |
| 20260904103148 | 80 | 273 | 2.0 | 2.0 | 0.00 | 0.00 | 0.00 | 95 | 1013.2 |
| 20260904102647 | 80 | 301 | 1.0 | 2.0 | 0.00 | 0.00 | 0.00 | 95 | 1012.9 |
| 20260904102146 | 80 | 237 | 2.0 | 3.0 | 0.00 | 0.00 | 0.00 | 95 | 1012.9 |
| 20260904101647 | 80 | 213 | 2.0 | 3.0 | 0.00 | 0.00 | 0.00 | 95 | 1012.9 |
| 20260904101147 | 80 | 193 | 2.0 | 3.0 | 0.00 | 0.00 | 0.00 | 94 | 1013.2 |
| 20260904100646 | 80 | 208 | 2.0 | 3.0 | 0.00 | 0.00 | 0.00 | 94 | 1012.9 |
| 20260904100147 | 80 | 198 | 2.0 | 3.0 | 0.00 | 0.00 | 0.00 | 94 | 1012.9 |
| 20260904095646 | 80 | 195 | 2.0 | 3.0 | 0.00 | 0.00 | 0.00 | 93 | 1012.9 |
| 20260904095148 | 81 | 214 | 0.0 | 2.0 | 0.00 | 0.00 | 0.00 | 93 | 1012.9 |
| 20260904094647 | 81 | 297 | 1.0 | 1.0 | 0.00 | 0.00 | 0.00 | 93 | 1012.5 |
| 20260904094146 | 81 | 246 | 1.0 | 2.0 | 0.00 | 0.00 | 0.00 | 93 | 1012.9 |
| 20260904093646 | 80 | 287 | 1.0 | 3.0 | 0.00 | 0.00 | 0.00 | 93 | 1012.9 |
| 20260904093147 | 80 | 281 | 0.0 | 3.0 | 0.00 | 0.00 | 0.00 | 93 | 1012.9 |
| 20260904092646 | 80 | 214 | 0.0 | 3.0 | 0.00 | 0.00 | 0.00 | 93 | 1012.5 |
| 20260904092147 | 80 | 220 | 2.0 | 3.0 | 0.00 | 0.00 | 0.00 | 92 | 1012.9 |
| 20260904091647 | 80 | 267 | 2.0 | 3.0 | 0.00 | 0.00 | 0.00 | 93 | 1012.9 |
| 20260904091147 | 80 | 300 | 2.0 | 3.0 | 0.00 | 0.00 | 0.00 | 92 | 1012.9 |
| 20260904090647 | 80 | 310 | 2.0 | 3.0 | 0.00 | 0.00 | 0.00 | 92 | 1012.9 |
| 20260904090146 | 80 | 300 | 2.0 | 3.0 | 0.00 | 0.00 | 0.00 | 92 | 1012.9 |
| 20260904085647 | 80 | 285 | 3.0 | 3.0 | 0.00 | 0.00 | 0.00 | 93 | 1012.9 |
| 20260904085146 | 80 | 275 | 2.0 | 4.0 | 0.00 | 0.00 | 0.00 | 93 | 1012.9 |
| 20260904084647 | 80 | 282 | 3.0 | 3.0 | 0.00 | 0.00 | 0.00 | 93 | 1012.9 |
| 20260904084147 | 80 | 312 | 1.0 | 3.0 | 0.00 | 0.00 | 0.00 | 93 | 1012.9 |
| 20260904083646 | 81 | 287 | 2.0 | 2.0 | 0.00 | 0.00 | 0.00 | 93 | 1012.9 |
| 20260904083146 | 81 | 272 | 3.0 | 3.0 | 0.00 | 0.00 | 0.00 | 93 | 1013.2 |
| 20260904082646 | 80 | 258 | 0.0 | 2.0 | 0.00 | 0.00 | 0.00 | 93 | 1012.9 |
| 20260904082146 | 80 | 293 | 2.0 | 2.0 | 0.00 | 0.00 | 0.00 | 93 | 1012.9 |
| 20260904081648 | 80 | 341 | 0.0 | 1.0 | 0.00 | 0.00 | 0.00 | 93 | 1013.2 |
| 20260904081146 | 80 | 326 | 0.0 | 1.0 | 0.00 | 0.00 | 0.00 | 93 | 1013.2 |
| 20260904080646 | 80 | 224 | 0.0 | 0.0 | 0.00 | 0.00 | 0.00 | 93 | 1012.9 |
| 20260904080146 | 80 | 224 | 0.0 | 0.0 | 0.00 | 0.00 | 0.00 | 93 | 1013.2 |
| 20260904075646 | 80 | 229 | 0.0 | 2.0 | 0.00 | 0.00 | 0.00 | 93 | 1012.9 |
| 20260904075146 | 80 | 231 | 1.0 | 2.0 | 0.00 | 0.00 | 0.00 | 93 | 1012.9 |
| 20260904074646 | 80 | 193 | 0.0 | 2.0 | 0.00 | 0.00 | 0.00 | 93 | 1013.2 |
| 20260904074148 | 80 | 234 | 1.0 | 2.0 | 0.00 | 0.00 | 0.00 | 93 | 1013.2 |
| 20260904073647 | 80 | 234 | 2.0 | 2.0 | 0.00 | 0.00 | 0.00 | 93 | 1013.2 |
| 20260904073147 | 81 | 210 | 0.0 | 1.0 | 0.00 | 0.00 | 0.00 | 93 | 1012.9 |
| 20260904072646 | 81 | 304 | 0.0 | 0.0 | 0.00 | 0.00 | 0.00 | 93 | 1012.9 |
| 20260904072148 | 80 | 329 | 0.0 | 2.0 | 0.00 | 0.00 | 0.00 | 93 | 1013.2 |
| 20260904071647 | 80 | 230 | 0.0 | 0.0 | 0.00 | 0.00 | 0.00 | 93 | 1012.9 |
| 20260904071147 | 80 | 246 | 0.0 | 1.0 | 0.00 | 0.00 | 0.00 | 93 | 1012.9 |
| 20260904070646 | 80 | 218 | 1.0 | 2.0 | 0.00 | 0.00 | 0.00 | 93 | 1013.2 |
| 20260904070146 | 80 | 237 | 1.0 | 2.0 | 0.00 | 0.00 | 0.00 | 94 | 1013.2 |
| 20260904065647 | 80 | 185 | 0.0 | 2.0 | 0.00 | 0.00 | 0.00 | 93 | 1013.2 |
| 20260904065146 | 80 | 224 | 0.0 | 0.0 | 0.00 | 0.00 | 0.00 | 93 | 1013.2 |
| 20260904064647 | 80 | 222 | 0.0 | 1.0 | 0.00 | 0.00 | 0.00 | 93 | 1013.2 |
| 20260904064146 | 81 | 255 | 0.0 | 1.0 | 0.00 | 0.00 | 0.00 | 93 | 1013.2 |
| 20260904063648 | 80 | 315 | 0.0 | 1.0 | 0.00 | 0.00 | 0.00 | 93 | 1013.2 |
| 20260904063147 | 80 | 224 | 0.0 | 0.0 | 0.00 | 0.00 | 0.00 | 93 | 1013.2 |
| 20260904062647 | 80 | 224 | 0.0 | 1.0 | 0.00 | 0.00 | 0.00 | 93 | 1013.2 |
| 20260904062146 | 80 | 218 | 0.0 | 1.0 | 0.00 | 0.00 | 0.00 | 93 | 1013.2 |
| 20260904061647 | 80 | 242 | 0.0 | 0.0 | 0.00 | 0.00 | 0.00 | 93 | 1013.2 |
| 20260904061148 | 80 | 135 | 0.0 | 0.0 | 0.00 | 0.00 | 0.00 | 93 | 1013.2 |
| 20260904060646 | 80 | 135 | 0.0 | 1.0 | 0.00 | 0.00 | 0.00 | 93 | 1013.2 |
| 20260904060147 | 80 | 32 | 0.0 | 1.0 | 0.00 | 0.00 | 0.00 | 93 | 1013.5 |
| 20260904055647 | 81 | 142 | 0.0 | 0.0 | 0.00 | 0.00 | 0.00 | 92 | 1013.2 |
| 20260904055146 | 81 | 142 | 0.0 | 0.0 | 0.00 | 0.00 | 0.00 | 92 | 1013.2 |
| 20260904054646 | 81 | 195 | 0.0 | 1.0 | 0.00 | 0.00 | 0.00 | 92 | 1013.2 |
| 20260904054146 | 81 | 190 | 1.0 | 1.0 | 0.00 | 0.00 | 0.00 | 92 | 1013.2 |
| 20260904053646 | 81 | 224 | 1.0 | 2.0 | 0.00 | 0.00 | 0.00 | 92 | 1013.2 |
| 20260904053147 | 81 | 184 | 0.0 | 1.0 | 0.00 | 0.00 | 0.00 | 91 | 1013.2 |
| 20260904052646 | 81 | 284 | 0.0 | 1.0 | 0.00 | 0.00 | 0.00 | 91 | 1013.2 |
| 20260904052147 | 81 | 343 | 0.0 | 1.0 | 0.00 | 0.00 | 0.00 | 91 | 1013.2 |
| 20260904051646 | 81 | 272 | 0.0 | 2.0 | 0.00 | 0.00 | 0.00 | 91 | 1012.9 |
| 20260904051147 | 81 | 242 | 0.0 | 1.0 | 0.00 | 0.00 | 0.00 | 90 | 1012.9 |
| 20260904050646 | 81 | 224 | 0.0 | 0.0 | 0.00 | 0.00 | 0.00 | 90 | 1012.9 |
| 20260904050146 | 81 | 269 | 0.0 | 1.0 | 0.00 | 0.00 | 0.00 | 90 | 1012.9 |
| 20260904045647 | 81 | 242 | 0.0 | 1.0 | 0.00 | 0.00 | 0.00 | 89 | 1012.9 |
| 20260904045147 | 81 | 215 | 0.0 | 2.0 | 0.00 | 0.00 | 0.00 | 89 | 1012.9 |
| 20260904044646 | 82 | 229 | 1.0 | 2.0 | 0.00 | 0.00 | 0.00 | 88 | 1012.5 |
| 20260904044146 | 82 | 293 | 0.0 | 0.0 | 0.00 | 0.00 | 0.00 | 88 | 1012.9 |
| 20260904043646 | 82 | 263 | 2.0 | 2.0 | 0.00 | 0.00 | 0.00 | 89 | 1012.9 |
| 20260904043147 | 82 | 222 | 2.0 | 3.0 | 0.00 | 0.00 | 0.00 | 88 | 1012.9 |
| 20260904042646 | 82 | 224 | 0.0 | 1.0 | 0.00 | 0.00 | 0.00 | 88 | 1012.5 |
| 20260904042147 | 82 | 230 | 0.0 | 0.0 | 0.00 | 0.00 | 0.00 | 87 | 1012.9 |
| 20260904041646 | 82 | 224 | 0.0 | 1.0 | 0.00 | 0.00 | 0.00 | 87 | 1012.9 |
| 20260904041148 | 82 | 210 | 0.0 | 1.0 | 0.00 | 0.00 | 0.00 | 87 | 1012.9 |
| 20260904040646 | 82 | 141 | 1.0 | 1.0 | 0.00 | 0.00 | 0.00 | 87 | 1012.9 |
| 20260904040149 | 82 | 315 | 0.0 | 1.0 | 0.00 | 0.00 | 0.00 | 87 | 1012.9 |
| 20260904035646 | 82 | 294 | 0.0 | 2.0 | 0.00 | 0.00 | 0.00 | 87 | 1012.9 |
| 20260904035147 | 82 | 255 | 0.0 | 1.0 | 0.00 | 0.00 | 0.00 | 86 | 1012.9 |
| 20260904034646 | 82 | 173 | 0.0 | 1.0 | 0.00 | 0.00 | 0.00 | 86 | 1013.2 |
| 20260904034146 | 82 | 160 | 2.0 | 2.0 | 0.00 | 0.00 | 0.00 | 86 | 1012.9 |
| 20260904033646 | 82 | 142 | 0.0 | 0.0 | 0.00 | 0.00 | 0.00 | 86 | 1013.2 |
| 20260904033146 | 82 | 224 | 0.0 | 1.0 | 0.00 | 0.00 | 0.00 | 86 | 1013.2 |
| 20260904032646 | 83 | 210 | 0.0 | 1.0 | 0.00 | 0.00 | 0.00 | 86 | 1013.2 |
| 20260904032149 | 82 | 197 | 1.0 | 2.0 | 0.00 | 0.00 | 0.00 | 86 | 1013.2 |
| 20260904031647 | 83 | 195 | 1.0 | 2.0 | 0.00 | 0.00 | 0.00 | 86 | 1013.2 |
| 20260904031146 | 83 | 215 | 0.0 | 1.0 | 0.00 | 0.00 | 0.00 | 86 | 1013.2 |
| 20260904030646 | 83 | 186 | 1.0 | 2.0 | 0.00 | 0.00 | 0.00 | 86 | 1013.5 |
| 20260904030147 | 83 | 173 | 2.0 | 3.0 | 0.00 | 0.00 | 0.00 | 85 | 1013.5 |
| 20260904025647 | 83 | 138 | 2.0 | 3.0 | 0.00 | 0.00 | 0.00 | 85 | 1013.5 |
| 20260904025146 | 83 | 117 | 0.0 | 4.0 | 0.00 | 0.00 | 0.00 | 85 | 1013.5 |
| 20260904024647 | 83 | 176 | 2.0 | 3.0 | 0.00 | 0.00 | 0.00 | 85 | 1013.5 |
| 20260904024147 | 83 | 180 | 1.0 | 2.0 | 0.00 | 0.00 | 0.00 | 85 | 1013.5 |
| 20260904023647 | 83 | 204 | 2.0 | 4.0 | 0.00 | 0.00 | 0.00 | 85 | 1013.5 |
| 20260904023147 | 84 | 164 | 2.0 | 2.0 | 0.00 | 0.00 | 0.00 | 84 | 1013.5 |
| 20260904022646 | 84 | 139 | 2.0 | 3.0 | 0.00 | 0.00 | 0.00 | 84 | 1013.5 |
| 20260904022147 | 84 | 155 | 2.0 | 3.0 | 0.00 | 0.00 | 0.00 | 84 | 1013.5 |
| 20260904021646 | 83 | 118 | 2.0 | 3.0 | 0.00 | 0.00 | 0.00 | 84 | 1013.5 |
| 20260904021146 | 84 | 160 | 3.0 | 3.0 | 0.00 | 0.00 | 0.00 | 84 | 1013.5 |
| 20260904020647 | 84 | 161 | 2.0 | 3.0 | 0.00 | 0.00 | 0.00 | 84 | 1013.5 |
| 20260904020146 | 84 | 140 | 1.0 | 3.0 | 0.00 | 0.00 | 0.00 | 84 | 1013.5 |
| 20260904015647 | 84 | 156 | 2.0 | 3.0 | 0.00 | 0.00 | 0.00 | 83 | 1013.5 |
| 20260904015146 | 84 | 163 | 2.0 | 3.0 | 0.00 | 0.00 | 0.00 | 83 | 1013.5 |
| 20260904014647 | 84 | 161 | 3.0 | 3.0 | 0.00 | 0.00 | 0.00 | 83 | 1013.2 |
| 20260904014147 | 84 | 176 | 2.0 | 3.0 | 0.00 | 0.00 | 0.00 | 83 | 1013.2 |
| 20260904013646 | 84 | 163 | 2.0 | 3.0 | 0.00 | 0.00 | 0.00 | 83 | 1013.2 |
| 20260904013148 | 84 | 158 | 3.0 | 3.0 | 0.00 | 0.00 | 0.00 | 82 | 1013.2 |
| 20260904012646 | 84 | 154 | 2.0 | 4.0 | 0.00 | 0.00 | 0.00 | 82 | 1013.2 |
| 20260904012146 | 84 | 145 | 3.0 | 4.0 | 0.00 | 0.00 | 0.00 | 83 | 1012.9 |
| 20260904011646 | 84 | 161 | 3.0 | 4.0 | 0.00 | 0.00 | 0.00 | 83 | 1013.2 |
| 20260904011146 | 84 | 164 | 3.0 | 3.0 | 0.00 | 0.00 | 0.00 | 83 | 1013.2 |
| 20260904010647 | 84 | 183 | 4.0 | 4.0 | 0.00 | 0.00 | 0.00 | 82 | 1013.2 |
| 20260904010147 | 84 | 167 | 3.0 | 4.0 | 0.00 | 0.00 | 0.00 | 82 | 1013.2 |
| 20260904005646 | 84 | 155 | 4.0 | 5.0 | 0.00 | 0.00 | 0.00 | 81 | 1013.2 |
| 20260904005146 | 84 | 173 | 2.0 | 5.0 | 0.00 | 0.00 | 0.00 | 81 | 1013.2 |
| 20260904004646 | 84 | 172 | 5.0 | 5.0 | 0.00 | 0.00 | 0.00 | 82 | 1013.2 |
| 20260904004147 | 85 | 168 | 5.0 | 6.0 | 0.00 | 0.00 | 0.00 | 81 | 1013.2 |
| 20260904003646 | 85 | 182 | 5.0 | 7.0 | 0.00 | 0.00 | 0.00 | 81 | 1013.5 |
| 20260904003146 | 85 | 186 | 5.0 | 6.0 | 0.00 | 0.00 | 0.00 | 81 | 1013.2 |
| 20260904002646 | 85 | 168 | 4.0 | 6.0 | 0.00 | 0.00 | 0.00 | 80 | 1013.2 |
| 20260904002146 | 85 | 191 | 3.0 | 5.0 | 0.00 | 0.00 | 0.00 | 80 | 1013.2 |
| 20260904001646 | 85 | 162 | 3.0 | 5.0 | 0.00 | 0.00 | 0.00 | 80 | 1013.2 |
| 20260904001146 | 85 | 167 | 3.0 | 6.0 | 0.00 | 0.00 | 0.00 | 79 | 1013.2 |
| 20260904000647 | 86 | 166 | 4.0 | 5.0 | 0.00 | 0.00 | 0.00 | 79 | 1012.9 |
| 20260904000146 | 86 | 155 | 2.0 | 5.0 | 0.00 | 0.00 | 0.00 | 78 | 1013.2 |
| 20260903235646 | 86 | 180 | 4.0 | 6.0 | 0.00 | 0.00 | 0.00 | 78 | 1013.2 |
| 20260903235146 | 86 | 162 | 5.0 | 8.0 | 0.00 | 0.00 | 0.00 | 78 | 1013.2 |
| 20260903234646 | 86 | 162 | 4.0 | 5.0 | 0.00 | 0.00 | 0.00 | 78 | 1013.2 |
| 20260903234146 | 86 | 176 | 4.0 | 7.0 | 0.00 | 0.00 | 0.00 | 77 | 1013.2 |
| 20260903233646 | 86 | 169 | 5.0 | 7.0 | 0.00 | 0.00 | 0.00 | 77 | 1013.2 |
| 20260903233147 | 87 | 184 | 5.0 | 6.0 | 0.00 | 0.00 | 0.00 | 77 | 1013.2 |
| 20260903232646 | 87 | 176 | 5.0 | 8.0 | 0.00 | 0.00 | 0.00 | 76 | 1012.9 |
| 20260903232146 | 87 | 152 | 3.0 | 6.0 | 0.00 | 0.00 | 0.00 | 76 | 1012.9 |
| 20260903231646 | 87 | 169 | 7.0 | 9.0 | 0.00 | 0.00 | 0.00 | 75 | 1012.9 |
| 20260903231146 | 87 | 181 | 6.0 | 6.0 | 0.00 | 0.00 | 0.00 | 76 | 1012.9 |
| 20260903230648 | 87 | 184 | 5.0 | 8.0 | 0.00 | 0.00 | 0.00 | 76 | 1012.9 |
| 20260903230150 | 87 | 190 | 6.0 | 11.0 | 0.00 | 0.00 | 0.00 | 76 | 1012.5 |
| 20260903225647 | 87 | 161 | 8.0 | 11.0 | 0.00 | 0.00 | 0.00 | 77 | 1012.9 |
| 20260903225146 | 87 | 174 | 6.0 | 11.0 | 0.00 | 0.00 | 0.00 | 76 | 1012.5 |
| 20260903224646 | 87 | 167 | 9.0 | 12.0 | 0.00 | 0.00 | 0.00 | 75 | 1012.9 |
| 20260903224149 | 87 | 167 | 9.0 | 14.0 | 0.00 | 0.00 | 0.00 | 75 | 1012.9 |
| 20260903223647 | 88 | 175 | 6.0 | 9.0 | 0.00 | 0.00 | 0.00 | 73 | 1012.9 |
| 20260903223146 | 88 | 164 | 5.0 | 7.0 | 0.00 | 0.00 | 0.00 | 72 | 1012.9 |
| 20260903222646 | 88 | 166 | 4.0 | 6.0 | 0.00 | 0.00 | 0.00 | 73 | 1012.5 |
| 20260903222146 | 88 | 165 | 8.0 | 9.0 | 0.00 | 0.00 | 0.00 | 71 | 1012.9 |
| 20260903221646 | 88 | 171 | 4.0 | 9.0 | 0.00 | 0.00 | 0.00 | 70 | 1012.5 |
| 20260903221147 | 88 | 158 | 5.0 | 10.0 | 0.00 | 0.00 | 0.00 | 69 | 1012.9 |
| 20260903220647 | 89 | 167 | 8.0 | 8.0 | 0.00 | 0.00 | 0.00 | 69 | 1012.9 |
| 20260903220147 | 89 | 160 | 5.0 | 9.0 | 0.00 | 0.00 | 0.00 | 69 | 1012.9 |
| 20260903215647 | 89 | 176 | 3.0 | 6.0 | 0.00 | 0.00 | 0.00 | 69 | 1012.9 |
| 20260903215146 | 89 | 173 | 6.0 | 7.0 | 0.00 | 0.00 | 0.00 | 69 | 1012.9 |
| 20260903214647 | 89 | 163 | 6.0 | 10.0 | 0.00 | 0.00 | 0.00 | 68 | 1012.9 |
| 20260903214146 | 89 | 178 | 5.0 | 7.0 | 0.00 | 0.00 | 0.00 | 69 | 1012.9 |
| 20260903213648 | 88 | 173 | 3.0 | 6.0 | 0.00 | 0.00 | 0.00 | 72 | 1012.9 |
| 20260903213147 | 88 | 161 | 7.0 | 7.0 | 0.00 | 0.00 | 0.00 | 73 | 1013.2 |
| 20260903212647 | 88 | 171 | 4.0 | 6.0 | 0.00 | 0.00 | 0.00 | 74 | 1013.2 |
| 20260903212150 | 88 | 173 | 10.0 | 10.0 | 0.00 | 0.00 | 0.00 | 74 | 1012.9 |
| 20260903211646 | 88 | 180 | 5.0 | 8.0 | 0.00 | 0.00 | 0.00 | 74 | 1012.9 |
| 20260903211147 | 87 | 180 | 3.0 | 5.0 | 0.00 | 0.00 | 0.00 | 77 | 1012.9 |
| 20260903210646 | 87 | 179 | 5.0 | 8.0 | 0.00 | 0.00 | 0.00 | 77 | 1012.9 |
| 20260903210149 | 87 | 204 | 4.0 | 8.0 | 0.00 | 0.00 | 0.00 | 77 | 1012.9 |
| 20260903205646 | 86 | 231 | 4.0 | 9.0 | 0.00 | 0.00 | 0.00 | 78 | 1013.2 |
| 20260903205147 | 86 | 173 | 5.0 | 9.0 | 0.00 | 0.00 | 0.00 | 78 | 1012.9 |
| 20260903204646 | 87 | 264 | 4.0 | 10.0 | 0.00 | 0.00 | 0.00 | 77 | 1012.9 |
| 20260903204148 | 87 | 227 | 7.0 | 7.0 | 0.00 | 0.00 | 0.00 | 78 | 1013.2 |
| 20260903203647 | 87 | 228 | 6.0 | 9.0 | 0.00 | 0.00 | 0.00 | 77 | 1012.9 |
| 20260903203146 | 87 | 238 | 3.0 | 9.0 | 0.00 | 0.00 | 0.00 | 76 | 1012.9 |
| 20260903202646 | 87 | 212 | 8.0 | 12.0 | 0.00 | 0.00 | 0.00 | 76 | 1013.2 |
| 20260903202146 | 88 | 196 | 9.0 | 13.0 | 0.00 | 0.00 | 0.00 | 75 | 1013.2 |
| 20260903201647 | 89 | 238 | 8.0 | 9.0 | 0.00 | 0.00 | 0.00 | 74 | 1013.2 |
| 20260903201148 | 89 | 218 | 5.0 | 8.0 | 0.00 | 0.00 | 0.00 | 74 | 1013.2 |
| 20260903200647 | 89 | 197 | 7.0 | 9.0 | 0.00 | 0.00 | 0.00 | 72 | 1013.5 |
| 20260903200147 | 89 | 190 | 7.0 | 8.0 | 0.00 | 0.00 | 0.00 | 71 | 1013.5 |
| 20260903195646 | 89 | 251 | 6.0 | 7.0 | 0.00 | 0.00 | 0.00 | 72 | 1013.2 |
| 20260903195146 | 89 | 187 | 4.0 | 7.0 | 0.00 | 0.00 | 0.00 | 72 | 1013.5 |
| 20260903194647 | 88 | 205 | 4.0 | 6.0 | 0.00 | 0.00 | 0.00 | 72 | 1013.5 |
| 20260903194147 | 87 | 255 | 5.0 | 9.0 | 0.00 | 0.00 | 0.00 | 72 | 1013.5 |
| 20260903193646 | 87 | 269 | 4.0 | 9.0 | 0.00 | 0.00 | 0.00 | 73 | 1013.5 |
| 20260903193146 | 86 | 232 | 5.0 | 11.0 | 0.00 | 0.00 | 0.00 | 75 | 1013.5 |
| 20260903192646 | 86 | 235 | 6.0 | 11.0 | 0.00 | 0.00 | 0.00 | 76 | 1013.5 |
| 20260903192146 | 86 | 224 | 7.0 | 9.0 | 0.00 | 0.00 | 0.00 | 76 | 1013.5 |
| 20260903191647 | 86 | 214 | 5.0 | 10.0 | 0.00 | 0.00 | 0.00 | 77 | 1013.5 |
| 20260903191147 | 87 | 247 | 5.0 | 10.0 | 0.00 | 0.00 | 0.00 | 76 | 1014.2 |
| 20260903190646 | 88 | 226 | 5.0 | 7.0 | 0.00 | 0.00 | 0.00 | 74 | 1013.9 |
| 20260903190147 | 87 | 209 | 4.0 | 6.0 | 0.00 | 0.00 | 0.00 | 76 | 1014.2 |
| 20260903185647 | 87 | 227 | 6.0 | 7.0 | 0.00 | 0.00 | 0.00 | 74 | 1014.2 |
| 20260903185147 | 87 | 194 | 4.0 | 7.0 | 0.00 | 0.00 | 0.00 | 73 | 1014.2 |
| 20260903184648 | 86 | 243 | 6.0 | 7.0 | 0.00 | 0.00 | 0.00 | 74 | 1014.2 |
| 20260903184147 | 86 | 184 | 3.0 | 6.0 | 0.00 | 0.00 | 0.00 | 75 | 1014.2 |
| 20260903183646 | 86 | 224 | 0.0 | 4.0 | 0.00 | 0.00 | 0.00 | 74 | 1013.9 |
| 20260903183146 | 88 | 165 | 7.0 | 8.0 | 0.00 | 0.00 | 0.00 | 71 | 1014.2 |
| 20260903182647 | 90 | 75 | 1.0 | 6.0 | 0.00 | 0.00 | 0.00 | 67 | 1014.2 |
| 20260903182147 | 90 | 42 | 2.0 | 4.0 | 0.00 | 0.00 | 0.00 | 67 | 1014.6 |
| 20260903181646 | 89 | 156 | 4.0 | 4.0 | 0.00 | 0.00 | 0.00 | 67 | 1014.6 |
| 20260903181147 | 89 | 75 | 3.0 | 4.0 | 0.00 | 0.00 | 0.00 | 68 | 1014.2 |
| 20260903180647 | 89 | 34 | 2.0 | 3.0 | 0.00 | 0.00 | 0.00 | 71 | 1014.2 |
| 20260903180146 | 89 | 302 | 3.0 | 5.0 | 0.00 | 0.00 | 0.00 | 70 | 1014.2 |
| 20260903175646 | 90 | 63 | 4.0 | 8.0 | 0.00 | 0.00 | 0.00 | 69 | 1014.6 |
| 20260903175148 | 89 | 52 | 6.0 | 7.0 | 0.00 | 0.00 | 0.00 | 70 | 1014.6 |
| 20260903174646 | 89 | 41 | 4.0 | 8.0 | 0.00 | 0.00 | 0.00 | 71 | 1014.6 |
| 20260903174147 | 89 | 4 | 4.0 | 5.0 | 0.00 | 0.00 | 0.00 | 71 | 1014.6 |
| 20260903173646 | 89 | 17 | 2.0 | 5.0 | 0.00 | 0.00 | 0.00 | 71 | 1014.6 |
| 20260903173146 | 88 | 39 | 2.0 | 11.0 | 0.00 | 0.00 | 0.00 | 72 | 1014.6 |
| 20260903172647 | 89 | 25 | 5.0 | 8.0 | 0.00 | 0.00 | 0.00 | 72 | 1014.9 |